Regional Weather Roundup
Issued by NWS

Home | Current Version | Previous Version | Text Only | Print | Product List | Glossary Off
Versions: 1 2 3 4 5 6 7 8 9 10 11 12 13 14 15 16 17 18 19 20 21 22 23 24 25 26 27 28 29 30 31 32 33 34 35 36 37 38 39 40 41 42 43 44 45 46 47 48 49 50

430
ASUS43 KLSX 281910
RWRMO

WEATHER SUMMARY FOR MISSOURI
NATIONAL WEATHER SERVICE SPRINGFIELD MO
200 PM CDT SUN AUG 28 2016

NOTE: "FAIR" INDICATES FEW OR NO CLOUDS BELOW 12,000 FEET WITH NO
       SIGNIFICANT WEATHER AND/OR OBSTRUCTIONS TO VISIBILITY.
       CURRENT SKY AND/OR WEATHER CONDITIONS ARE NOT AVAILABLE FOR
       CHILLICOTHE AND FARMINGTON.

MOZ001>031-035>038-043-044-053-054-282000-
...NORTHERN AND WESTERN MISSOURI...

CITY           SKY/WX    TMP DP  RH WIND       PRES   REMARKS
KANSAS CTY INT MOSUNNY   87  69  54 S6        30.11F HX  91
KANSAS C DTWN  MOSUNNY   88  70  55 SE10      30.09F HX  93
LEE`S SUMMIT   PTSUNNY   86  71  60 SE6       30.13F HX  91
ST JOSEPH      PTSUNNY   84  73  69 S6        30.10F THUNDER HX  90
KIRKSVILLE     PTSUNNY   88  73  61 S5        30.15F HX  95

$$
MOZ066>068-077>081-088>096-101>105-282000-
...SOUTHWEST MISSOURI...

CITY           SKY/WX    TMP DP  RH WIND       PRES   REMARKS
SPRINGFIELD    SUNNY     89  64  43 S10       30.14F HX  90
JOPLIN         PTSUNNY   88  68  51 VRB6      30.12F HX  91
BRANSON        PTSUNNY   86  70  58 E12       30.16F HX  90

$$
MOZ032>034-039>042-045>050-055>058-069>072-282000-
...CENTRAL MISSOURI...

CITY           SKY/WX    TMP DP  RH WIND       PRES   REMARKS
COLUMBIA       MOSUNNY   88  74  63 SE7       30.14F HX  96
JEFFERSON CITY MOSUNNY   89  74  60 SE8       30.12F HX  98
ROLLA          PTSUNNY   87  70  56 SE5       30.16F HX  92
SEDALIA        PTSUNNY   90  72  55 CALM      30.14F HX  97
WHITEMAN AFB   PTSUNNY   87  73  63 VRB3      30.11F HX  95
OSAGE BEACH    PTSUNNY   87  72  60 E7        30.15F HX  93

$$
MOZ051-052-059>065-282000-
...EAST CENTRAL MISSOURI...

CITY           SKY/WX    TMP DP  RH WIND       PRES   REMARKS
ST LOUIS INTL  PTSUNNY   94  65  38 S8        30.15F HX  96
SPIRIT OF STL  MOSUNNY   90  69  50 VRB5      30.13F HX  94
ST CHARLES     MOSUNNY   90  73  57 VRB5      30.12F HX  98

$$
MOZ072>076-082>087-097>100-106>115-282000-
...SOUTH CENTRAL AND SOUTHEAST MISSOURI...

CITY           SKY/WX    TMP DP  RH WIND       PRES   REMARKS
CAPE GIRARDEAU SUNNY     91  72  53 E5        30.12F HX  98
FARMINGTON     SUNNY     90  71  53 CALM      30.17F HX  96
POPLAR BLUFF   PTSUNNY   91  75  59 NE7       30.12F HX 101
WEST PLAINS    MOSUNNY   86  69  56 SE8       30.17F HX  90

$$




USA.gov is the U.S. government's official web portal to all federal, state and local government web resources and services.